TimeEST,TemperatureF,Dew PointF,Humidity,Sea Level PressureIn,VisibilityMPH,Wind Direction,Wind SpeedMPH,Gust SpeedMPH,PrecipitationIn,Events,Conditions,WindDirDegrees,DateUTC
12:53 AM,66.9,62.1,84,30.04,10.0,Calm,Calm,-,N/A,,Clear,0,2014-01-28 05:53:00
1:53 AM,66.9,64.0,90,30.04,10.0,Calm,Calm,-,N/A,,Mostly Cloudy,0,2014-01-28 06:53:00
2:53 AM,66.0,63.0,90,30.03,8.0,Calm,Calm,-,N/A,,Clear,0,2014-01-28 07:53:00
3:53 AM,64.0,62.1,93,30.02,9.0,SSE,3.5,-,N/A,,Clear,150,2014-01-28 08:53:00
4:53 AM,64.0,62.1,93,30.03,6.0,South,4.6,-,N/A,,Clear,190,2014-01-28 09:53:00
5:53 AM,62.1,60.1,93,30.04,7.0,Calm,Calm,-,N/A,,Clear,0,2014-01-28 10:53:00
6:53 AM,62.1,60.1,93,30.04,6.0,Calm,Calm,-,N/A,,Clear,0,2014-01-28 11:53:00
7:53 AM,64.0,62.1,93,30.06,5.0,Calm,Calm,-,N/A,,Clear,0,2014-01-28 12:53:00
8:53 AM,72.0,66.0,81,30.08,7.0,Calm,Calm,-,N/A,,Clear,0,2014-01-28 13:53:00
9:53 AM,77.0,64.0,64,30.09,10.0,SSE,4.6,-,N/A,,Clear,160,2014-01-28 14:53:00
10:53 AM,79.0,66.0,64,30.09,10.0,SSE,12.7,-,N/A,,Clear,150,2014-01-28 15:53:00
11:53 AM,79.0,64.9,62,30.07,10.0,SE,11.5,-,N/A,,Partly Cloudy,140,2014-01-28 16:53:00
12:53 PM,80.1,66.0,62,30.05,10.0,SE,10.4,-,N/A,,Partly Cloudy,140,2014-01-28 17:53:00
1:53 PM,80.1,66.9,64,30.01,10.0,SSE,10.4,-,N/A,,Partly Cloudy,150,2014-01-28 18:53:00
2:53 PM,79.0,66.9,66,29.99,10.0,SSE,12.7,-,N/A,,Partly Cloudy,150,2014-01-28 19:53:00
3:53 PM,79.0,68.0,69,29.98,10.0,SSE,15.0,20.7,N/A,,Partly Cloudy,160,2014-01-28 20:53:00
4:53 PM,77.0,66.9,71,29.99,10.0,SSE,13.8,-,N/A,,Clear,150,2014-01-28 21:53:00
5:53 PM,75.9,68.0,76,30.00,10.0,SSE,11.5,-,N/A,,Partly Cloudy,160,2014-01-28 22:53:00
6:53 PM,75.9,66.9,74,30.00,10.0,South,9.2,-,N/A,,Clear,170,2014-01-28 23:53:00
7:53 PM,75.9,68.0,76,30.02,10.0,South,5.8,-,N/A,,Clear,180,2014-01-29 00:53:00
8:53 PM,75.0,69.1,82,30.04,10.0,South,5.8,-,N/A,,Clear,180,2014-01-29 01:53:00
9:53 PM,73.0,69.1,87,30.05,10.0,SSW,3.5,-,N/A,,Clear,200,2014-01-29 02:53:00
10:53 PM,73.0,69.1,87,30.04,10.0,SSW,3.5,-,N/A,,Clear,200,2014-01-29 03:53:00
11:53 PM,71.1,68.0,90,30.05,10.0,Calm,Calm,-,N/A,,Clear,0,2014-01-29 04:53:00